Cairo, Egypt

9:52 PM EET on December 06, 2016 (GMT +0200)
Cairo International

Weather History for HECA - March, 2014

Change the Weather History Date:

Thursday, March 20, 2014

  Actual Average Record
Temperature  
Mean Temperature 65 °F -  
Max Temperature 74 °F 72 °F 91 °F (2008)
Min Temperature 56 °F 54 °F 50 °F (2012)
Growing Degree Days 15 (Base 50)    
Moisture  
Dew Point 52 °F    
Average Humidity 68    
Maximum Humidity 100    
Minimum Humidity 28    
Precipitation  
Precipitation 0.00 in - - ()
Sea Level Pressure  
Sea Level Pressure 30.08 in    
Wind  
Wind Speed 9 mph ()    
Max Wind Speed 15 mph    
Max Gust Speed -    
Visibility 3.6 miles    
Events      
Averages and records for this station are not official NWS values.
T = Trace of Precipitation, MM = Missing Value Source: Averaged Metar Reports

Daily Weather History Graph

Daily Weather History Graph

Search for Another Location

Airport or City:

Trip Planner

Search our weather history database for the weather conditions in past years. The results will help you decide how hot, cold, wet, or windy it might be!

Date:

Astronomy

Mar. 20, 2014 Rise Set
Actual Time 5:58 AM EET 6:05 PM EET
Civil Twilight 5:34 AM EET 6:29 PM EET
Nautical Twilight 5:06 AM EET 6:57 PM EET
Astronomical Twilight 4:38 AM EET 7:25 PM EET
Moon 9:47 PM EET (3/20) 8:06 AM EET (3/20)
Length of Visible Light 12h 54m
Length of Day
12h 07m
Waning Gibbous, 86% of the Moon is Illuminated
Mar 20
Waning Gibbous
Mar 24
Last Quarter
Mar 30
New
Apr 7
First Quarter
Apr 15
Full

Hourly Weather History & Observations

Time (EET) Temp. Dew Point Humidity Pressure Visibility Wind Dir Wind Speed Gust Speed Precip Events Conditions
12:00 AM 60.8 °F 57.2 °F 88% 30.09 in - NNE 10.4 mph - N/A   Clear
12:30 AM 60.8 °F 57.2 °F 88% 30.09 in - NNE 10.4 mph - N/A   Clear
1:00 AM 59.0 °F 57.2 °F 94% 30.09 in 3.7 mi NNE 8.1 mph - N/A   Unknown
1:30 AM 59.0 °F 57.2 °F 94% 30.09 in 3.7 mi NNE 8.1 mph - N/A   Unknown
2:00 AM 59 °F 57 °F 90% 30.10 in 2 mi NNE 6.9 mph - -   Mist
2:00 AM 59.0 °F 57.2 °F 94% 30.09 in 2.5 mi NNE 6.9 mph - N/A   Mist
2:30 AM 59.0 °F 57.2 °F 94% 30.09 in 1.9 mi NNE 6.9 mph - N/A   Mist
3:00 AM 59.0 °F 57.2 °F 94% 30.09 in 1.9 mi NNE 6.9 mph - N/A   Mist
3:30 AM 59.0 °F 57.2 °F 94% 30.09 in 1.9 mi NNE 6.9 mph - N/A   Mist
4:00 AM 57.2 °F 57.2 °F 100% 30.06 in 1.9 mi NE 8.1 mph - N/A   Mist
4:30 AM 57.2 °F 57.2 °F 100% 30.06 in 1.9 mi NE 8.1 mph - N/A   Mist
5:00 AM 57 °F 57 °F 100% 30.09 in 1 mi NNE 8.1 mph - -   Mist
5:00 AM 57.2 °F 57.2 °F 100% 30.06 in 1.2 mi NNE 8.1 mph - N/A   Mist
5:30 AM 57.2 °F 57.2 °F 100% 30.06 in 1.2 mi NNE 8.1 mph - N/A   Mist
6:00 AM 57.2 °F 57.2 °F 100% 30.09 in 1.2 mi NNE 9.2 mph - N/A   Mist
6:30 AM 57.2 °F 57.2 °F 100% 30.09 in 1.2 mi NNE 9.2 mph - N/A   Mist
7:00 AM 57.2 °F 57.2 °F 100% 30.09 in 1.2 mi NNE 9.2 mph - N/A   Mist
7:30 AM 59.0 °F 59.0 °F 100% 30.12 in 1.2 mi NNE 6.9 mph - N/A   Mist
8:00 AM 58 °F 58 °F 100% 30.13 in 1 mi NNE 8.1 mph - -   Mist
8:00 AM 59.0 °F 59.0 °F 100% 30.12 in 1.2 mi NNE 8.1 mph - N/A   Mist
8:30 AM 59.0 °F 59.0 °F 100% 30.12 in 1.2 mi NE 10.4 mph - N/A   Mist
9:00 AM 60.8 °F 55.4 °F 82% 30.12 in 1.2 mi NNE 12.7 mph - N/A   Mist
9:30 AM 62.6 °F 53.6 °F 72% 30.12 in 3.7 mi NNE 12.7 mph - N/A   Unknown
10:00 AM 64.4 °F 53.6 °F 68% 30.12 in 3.7 mi NNE 10.4 mph - N/A   Unknown
10:30 AM 66.2 °F 51.8 °F 60% 30.09 in 6.2 mi NNE 10.4 mph - N/A   Partly Cloudy
11:00 AM 68 °F 52 °F 45% 30.11 in 6 mi North 11.5 mph - -   Scattered Clouds
11:00 AM 68.0 °F 51.8 °F 56% 30.09 in 6.2 mi North 11.5 mph - N/A   Partly Cloudy
11:30 AM 68.0 °F 51.8 °F 56% 30.09 in 6.2 mi North 11.5 mph - N/A   Partly Cloudy
12:00 PM 69.8 °F 50.0 °F 49% 30.09 in 6.2 mi North 12.7 mph - N/A   Partly Cloudy
12:30 PM 69.8 °F 50.0 °F 49% 30.09 in 6.2 mi North 11.5 mph - N/A   Partly Cloudy
1:00 PM 71.6 °F 48.2 °F 43% 30.06 in 6.2 mi North 12.7 mph - N/A   Partly Cloudy
1:30 PM 73.4 °F 48.2 °F 41% 30.06 in 6.2 mi North 12.7 mph - N/A   Partly Cloudy
2:00 PM 73 °F 48 °F 30% 30.05 in 6 mi NNW 11.5 mph - -   Scattered Clouds
2:00 PM 73.4 °F 48.2 °F 41% 30.04 in 6.2 mi NNW 11.5 mph - N/A   Partly Cloudy
2:30 PM 73.4 °F 48.2 °F 41% 30.04 in 6.2 mi North 12.7 mph - N/A   Partly Cloudy
3:00 PM 75.2 °F 48.2 °F 38% 30.04 in 6.2 mi North 11.5 mph - N/A   Partly Cloudy
3:30 PM 73.4 °F 48.2 °F 41% 30.01 in - North 12.7 mph - N/A   Clear
4:00 PM 73.4 °F 48.2 °F 41% 30.04 in - North 12.7 mph - N/A   Clear
4:30 PM 73.4 °F 46.4 °F 38% 30.04 in - North 12.7 mph - N/A   Clear
5:00 PM 73 °F 47 °F 28% 30.04 in 6 mi North 13.8 mph - -  
5:00 PM 73.4 °F 46.4 °F 38% 30.04 in - North 13.8 mph - N/A   Clear
5:30 PM 73.4 °F 42.8 °F 33% 30.04 in - North 12.7 mph - N/A   Clear
6:00 PM 71.6 °F 44.6 °F 38% 30.04 in - North 13.8 mph - N/A   Clear
6:30 PM 69.8 °F 44.6 °F 40% 30.06 in - North 12.7 mph - N/A   Clear
7:00 PM 68.0 °F 42.8 °F 40% 30.06 in - NNE 15.0 mph - N/A   Clear
7:30 PM 68.0 °F 42.8 °F 40% 30.06 in - NNE 15.0 mph - N/A   Clear
8:00 PM 67 °F 45 °F 33% 30.08 in 6 mi NNE 12.7 mph - -  
8:00 PM 66.2 °F 44.6 °F 46% 30.06 in - NNE 12.7 mph - N/A   Clear
8:30 PM 66.2 °F 48.2 °F 52% 30.06 in - NNE 12.7 mph - N/A   Clear
9:00 PM 64.4 °F 50.0 °F 59% 30.09 in - NNE 11.5 mph - N/A   Clear
9:30 PM 62.6 °F 50.0 °F 63% 30.09 in - NNE 11.5 mph - N/A   Clear
10:00 PM 60.8 °F 51.8 °F 72% 30.09 in - NE 10.4 mph - N/A   Clear
10:30 PM 60.8 °F 51.8 °F 72% 30.09 in - NE 10.4 mph - N/A   Clear
11:00 PM 60 °F 53 °F 72% 30.10 in 6 mi NE 9.2 mph - -  
11:00 PM 60.8 °F 53.6 °F 77% 30.09 in - NE 9.2 mph - N/A   Clear
11:30 PM 59.0 °F 53.6 °F 82% 30.06 in - NNE 8.1 mph - N/A   Clear